www.pogodaiklimat.ru

Погода и климат >> Архив погоды >> Китай >> Нинся-Хуэйский автономный район >> Яньчи


ПОГОДА в Яньчи

  • Прогноз погоды в Яньчи
  • Монитор погоды в Яньчи

АРХИВ ПОГОДЫ в Яньчи

Время (UTC), дата Ветер
(напр.,м/с)
 
Видим.   Явления Облачность Т
(С)
Тd
(С)
f
(%)
Тe
(С)
Тes
(С)
Комфортность P
(гПа)
Po
(гПа)
Тmin
(С)
Tmax
(С)
R
(мм)
R24
(мм)
S
(см)
18 18.05 СЗ 2 13 км ?/? +9.4 +3.2 65 +8 +8 1016.1 867.6 +22.9
21 18.05 СЗ 1 8000 м н/о +7.0 -8.2 33 +7 +7 1019.1 863.7
00 19.05 З 3 9000 м 9/9
[]
+9.6 -11.7 21 +8 +9 1022.8 871.0 0.0
03 19.05 З 4 15 км 9/9
[]
+13.6 -13.4 14 +13 +14 1022.9 870.3
06 19.05 С 2 30 км 6/6 1000 м
[]
+15.1 -12.2 14 +15 +23 1022.5 871.3 +6.1
09 19.05 СЗ 2 30 км 3/3 1000 м
[]
+14.7 -10.9 16 +15 +20 1021.8 869.9
12 19.05 С 2 30 км 6/6
[]
+11.9 -13.9 15 +12 +12 1022.4 870.5
15 19.05 СЗ 1 30 км н/о +6.6 -12.0 25 +7 +7 1023.7 867.4
18 19.05 З 1 29 км ?/? +3.9 -9.1 38 +3 +3 1024.1 871.3 +16.1
21 19.05 З 1 24 км н/о +0.8 -7.7 53 -0 -0 1023.9 864.6
00 20.05 ЮВ 1 24 км 9/9
[]
+9.8 -11.5 21 +10 +11 1022.8 870.9
03 20.05 Ю 2 30 км 4/4
[]
+15.1 -12.2 14 +15 +25 1021.5 869.8
06 20.05 ЮВ 3 30 км 3/3
[]
+19.7 -10.5 12 +19 +30 1017.5 866.8 +0.3
09 20.05 Ю 2 30 км 3/3
[]
+22.0 -9.8 11 +20 +25 1014.7 867.3
12 20.05 В 1 30 км 8/8
[]
+17.7 -6.9 18 +19 +19 1013.4 864.3
15 20.05 З 1 30 км н/о +12.0 -7.9 24 +13 +13 1015.5 863.2
18 20.05 СЗ 1 24 км ?/? +8.2 -6.7 34 +8 +8 1014.7 865.5 +22.5
21 20.05 З 1 30 км н/о +5.6 -5.1 46 +5 +5 1014.2 858.9
00 21.05 В 1 18 км ясно +14.8 -5.0 25 +16 +21 1013.8 865.8
03 21.05 С 2 30 км 9/9
[]
+20.8 -8.6 13 +21 +22 комфорт 1014.0 866.1
06 21.05 З 2 30 км 4/4
[]
+23.2 -8.9 11 +21 +32 комфорт 1013.1 864.9 +4.4
09 21.05 З 2 30 км ясно +24.7 -10.3 9 +22 +29 комфорт 1011.1 865.4
12 21.05 З 1 30 км ясно +20.0 -11.4 11 +20 +20 1010.1 863.2
15 21.05 З 1 27 км н/о +11.8 -5.6 29 +12 +12 1011.9 860.0
18 21.05 СВ 1 20 км ?/? +7.9 -2.7 47 +8 +8 1011.5 863.5 +25.3
21 21.05 штиль 0 16 км н/о +4.9 -3.4 55 +4 +4 1012.0 856.6
00 22.05 штиль 0 18 км ясно +16.6 -2.0 28 +17 +23 1011.2 864.5
03 22.05 С 2 30 км ясно +25.7 -9.5 9 +23 +40 комфорт 1010.1 865.0
06 22.05 СВ 2 30 км ясно +28.5 -8.9 8 +25 +44 комфорт 1008.4 862.1 +4.7
09 22.05 В 2 30 км ясно +28.7 -10.5 7 +25 +32 комфорт 1007.0 863.7
12 22.05 Ю 1 30 км 3/3
[]
+25.1 -11.5 8 +22 +22 комфорт 1004.9 860.3
15 22.05 Ю 2 30 км н/о +20.3 -8.1 14 +20 +20 1005.2 858.4
18 22.05 С 1 30 км ?/? +14.1 -2.8 31 +15 +15 1006.0 861.4 +29.4
21 22.05 штиль 0 30 км н/о +9.1 -1.6 47 +9 +9 1006.5 854.1
00 23.05 Ю 1 28 км 9/9
[]
+18.7 +0.3 29 +20 +20 1005.4 861.2
03 23.05 ЮЗ 5 22 км 9/9
[]
+26.1 +3.4 23 +25 +26 комфорт 1004.3 860.2
06 23.05 Ю 4 27 км 9/9
[]
+26.1 +1.4 20 +25 +26 комфорт 1003.7 858.9 +8.9
09 23.05 Ю 4 29 км 9/9
[]
+27.2 +2.3 20 +26 +26 жарко 1002.4 859.1
12 23.05 Ю 2 30 км 9/9
[]
+25.3 +3.3 24 +24 +24 комфорт 1001.0 857.5
15 23.05 Ю 4 30 км слаб. морось н/о +22.9 +4.9 31 +23 +23 комфорт 1000.2 855.3
18 23.05 В 1 30 км ?/? +17.8 +5.4 44 +19 +19 1000.6 857.1 +28.2
21 23.05 ЮВ 2 25 км н/о +16.0 +5.9 51 +16 +16 999.5 851.5
00 24.05 Ю 1 30 км 3/3
[]
+19.6 +7.7 46 +22 +25 комфорт 999.8 856.6
03 24.05 ЮЗ 1 30 км 3/3
[]
+26.7 +4.5 24 +26 +40 жарко 998.3 855.3
06 24.05 С 4 25 км 9/9 1500 м
[]
+28.4 +4.0 21 +27 +28 жарко 998.0 855.4 +14.9
09 24.05 С 1 30 км 3/3 1000 м
[]
+30.1 +1.5 16 +28 +33 жарко 996.8 855.5
12 24.05 С 1 4500 м 3/3
[]
+24.5 +4.3 27 +24 +24 комфорт 997.7 854.7
15 24.05 С 1 16 км н/о +17.0 +1.8 36 +18 +18 999.4 851.9
18 24.05 С 1 16 км в посл. час дождь ?/? +13.8 +4.4 53 +14 +14 999.5 855.8 +30.7
21 24.05 З 1 20 км н/о +11.6 +6.3 70 +12 +12 999.0 849.0
00 25.05 СВ 1 24 км 9/9
[]
+20.9 +4.9 35 +23 +23 комфорт 1000.2 857.1
03 25.05 СЗ 2 8000 м 9/9
[]
+27.6 -1.3 15 +25 +27 комфорт 1000.9 858.0
06 25.05 СВ 2 11 км 9/9
[]
+29.9 -0.5 14 +27 +29 жарко 999.7 856.3 +10.8
09 25.05 С 3 10 км 9/9
[]
+28.3 -0.8 15 +26 +26 жарко 1000.1 857.6
12 25.05 С 4 11 км 9/9
[]
+24.0 -1.8 18 +22 +22 комфорт 1001.3 857.9
15 25.05 С 4 14 км ?/? +18.4 +1.9 33 +18 +18 1005.0 857.3

 

Местоположение метеостанции Яньчи (Нинся-Хуэйский автономный район, Китай): широта 37.80 долгота 107.38 высота над уровнем моря 1356 м.

В архиве по умолчанию представлена погода в Яньчи за последнюю неделю. Архивные данные за месяц целиком и за предыдущие месяцы, начиная с января 2011 года, Вы можете получить, выбрав интересующий диапазон дат из раскрывающегося списка и нажав кнопку "Ввод!".


*Определитесь, кто Вы:
робот инопланетянин человек

Внимание! Время в таблицах - всемирное. Для получения местного времени необходимо прибавить поправку, которая равна 8 ч.

Смотрите также архив погоды в соседних городах и на ближайших метеорологических станциях:

Погода в Иньчуане (Нинся-Хуэйский автономный район, Китай) (127 км)
Погода в Отог-Ци (Внутренняя Монголия, Китай) (154 км)
Погода в Чжуннине (Нинся-Хуэйский автономный район, Китай) (154 км)
Погода в Юйлине (Гуанси-Чжуанский автономный район, Китай) (209 км)
Погода в Яньане (Шэньси, Китай) (230 км)
Погода в Цинъяне (Ганьсу, Китай) (231 км)
Погода в Пинляне (Ганьсу, Китай) (258 км)
Погода в Джартае (Внутренняя Монголия, Китай) (262 км)
Погода в Дуншэне (Внутренняя Монголия, Китай) (319 км)
Погода в Лиши (Шаньси, Китай) (329 км)

Пояснения к столбцам:

Ветер - указаны скорость ветра в м/с - средняя за 10 мин, порывы в срок и между сроками (в фигурных скобках) и направление, откуда дует ветер: С - северный, СВ - северо-восточный, В - восточный, ЮВ - юго-восточный, Ю - южный, ЮЗ - юго-западный, З - западный, СЗ - северо-западный.
Видимость - горизонтальная дальность видимости в метрах или километрах. При видимости от 1 до 10 км при отсутствии осадков обычно наблюдается дымка, при ухудшении видимости до 1 км и менее - туман. В сухую погоду видимость может ухудшаться дымом, пылью или мглою.
Явления - указаны атмосферные явления, наблюдавшиеся в срок или в последний час перед сроком; фигурными скобками обозначены явления, наблюдавшиеся между сроками (за 1-3 часа до срока); квадратными скобками обозначены град или гололедные отложения с указанием их диаметра в мм.
Облачность - указаны через наклонную черту общая и нижняя облачность в баллах и высота нижней границы облаков в метрах; квадратными скобками обозначены формы облаков: Ci - перистые, Cs - перисто-слоистые, Cc - перисто-кучевые, Ac - высококучевые, As - высокослоистые, Sc - слоисто-кучевые, Ns - слоисто-дождевые, Cu - кучевые, Cb - кучево-дождевые. Подробнее классификацию облаков см. в Атласе облаков (PDF).
T - Температура воздуха - температура, измеренная на высоте 2 м над землей.
Td - Температура точки росы - температура, при понижении до которой содержащийся в воздухе водяной пар достигнет насыщения.
f - Относительная влажность воздуха - влажноcть воздуха, измеренная на высоте 2 м над землей.
Te - Эффективная температура - температура, которую ощущает одетый по сезону человек в тени. Характеристика душности погоды. При расчете учитывается влияние влажности воздуха и скорости ветра на теплоощущения человека.
Tes - Эффективная температура на солнце - температура, которую ощущает человек, с поправкой на солнечный нагрев. Характеристика знойности погоды. Зависит от высоты солнца над горизонтом, облачности и скорости ветра. Ночью, в пасмурную погоду, а также при ветре 12 м/с и более поправка равна нулю.
P - Атмосферное давление - приведенное к уровню моря атмосферное давление.
Po - Атмосферное давление - измеренное на уровне метеостанции атмосферное давление.
Tmin - Минимальная температура - минимум температуры воздуха на высоте 2 м над землей.
Tmax - Максимальная температура - максимум температуры воздуха на высоте 2 м над землей.
R - Количество осадков - Количество выпавших осадков за период времени, мм. При наведении курсора мыши на число - период времени, за который выпало указанное количество осадков.
R24 - Количество осадков - Количество выпавших осадков за 24 часа, мм.
S - Снежный покров - Высота снежного покрова, см. При наведении курсора мыши на число - состояние снежного покрова и степень покрытия местности в баллах.